Year,Month,Day,Hour,Minute,Value (Times are PST for temperature in C)
2014,08,25,00,00,18.20
2014,08,25,00,01,18.20
2014,08,25,00,02,18.20
2014,08,25,00,03,18.10
2014,08,25,00,04,18.10
2014,08,25,00,05,18.10
2014,08,25,00,06,18.10
2014,08,25,00,07,18.00
2014,08,25,00,08,18.00
2014,08,25,00,09,17.90
2014,08,25,00,10,17.90
2014,08,25,00,11,17.90
2014,08,25,00,12,17.90
2014,08,25,00,13,17.80
2014,08,25,00,14,17.80
2014,08,25,00,15,17.80
2014,08,25,00,16,17.80
2014,08,25,00,17,17.80
2014,08,25,00,18,17.80
2014,08,25,00,19,17.80
2014,08,25,00,20,17.80
2014,08,25,00,21,17.80
2014,08,25,00,22,17.80
2014,08,25,00,23,17.80
2014,08,25,00,24,17.80
2014,08,25,00,25,17.80
2014,08,25,00,26,17.80
2014,08,25,00,27,17.80
2014,08,25,00,28,17.80
2014,08,25,00,29,17.80
2014,08,25,00,30,17.80
2014,08,25,00,31,17.80
2014,08,25,00,32,17.70
2014,08,25,00,33,17.70
2014,08,25,00,34,17.70
2014,08,25,00,35,17.70
2014,08,25,00,36,17.70
2014,08,25,00,37,17.70
2014,08,25,00,38,17.70
2014,08,25,00,39,17.70
2014,08,25,00,40,17.60
2014,08,25,00,41,17.60
2014,08,25,00,42,17.60
2014,08,25,00,43,17.60
2014,08,25,00,44,17.50
2014,08,25,00,45,17.50
2014,08,25,00,46,17.40
2014,08,25,00,47,17.40
2014,08,25,00,48,17.40
2014,08,25,00,49,17.40
2014,08,25,00,50,17.30
2014,08,25,00,51,17.30
2014,08,25,00,52,17.30
2014,08,25,00,53,17.30
2014,08,25,00,54,17.30
2014,08,25,00,55,17.30
2014,08,25,00,56,17.30
2014,08,25,00,57,17.30
2014,08,25,00,58,17.30
2014,08,25,00,59,17.30
2014,08,25,01,00,17.30
2014,08,25,01,01,17.30
2014,08,25,01,02,17.30
2014,08,25,01,03,17.30
2014,08,25,01,04,17.30
2014,08,25,01,05,17.30
2014,08,25,01,06,17.30
2014,08,25,01,07,17.30
2014,08,25,01,08,17.30
2014,08,25,01,09,17.30
2014,08,25,01,10,17.30
2014,08,25,01,11,17.30
2014,08,25,01,12,17.30
2014,08,25,01,13,17.30
2014,08,25,01,14,17.30
2014,08,25,01,15,17.30
2014,08,25,01,16,17.30
2014,08,25,01,17,17.30
2014,08,25,01,18,17.30
2014,08,25,01,19,17.30
2014,08,25,01,20,17.30
2014,08,25,01,21,17.30
2014,08,25,01,22,17.40
2014,08,25,01,23,17.40
2014,08,25,01,24,17.40
2014,08,25,01,25,17.40
2014,08,25,01,26,17.40
2014,08,25,01,27,17.40
2014,08,25,01,28,17.40
2014,08,25,01,29,17.30
2014,08,25,01,30,17.30
2014,08,25,01,31,17.40
2014,08,25,01,32,17.40
2014,08,25,01,33,17.40
2014,08,25,01,34,17.30
2014,08,25,01,35,17.30
2014,08,25,01,36,17.30
2014,08,25,01,37,17.30
2014,08,25,01,38,17.30
2014,08,25,01,39,17.30
2014,08,25,01,40,17.20
2014,08,25,01,41,17.20
2014,08,25,01,42,17.20
2014,08,25,01,43,17.20
2014,08,25,01,44,17.20
2014,08,25,01,45,17.20
2014,08,25,01,46,17.10
2014,08,25,01,47,17.10
2014,08,25,01,48,17.10
2014,08,25,01,49,17.10
2014,08,25,01,50,17.10
2014,08,25,01,51,17.10
2014,08,25,01,52,17.10
2014,08,25,01,53,17.10
2014,08,25,01,54,17.00
2014,08,25,01,55,17.00
2014,08,25,01,56,17.00
2014,08,25,01,57,17.00
2014,08,25,01,58,17.00
2014,08,25,01,59,17.00
2014,08,25,02,00,16.90
2014,08,25,02,01,16.90
2014,08,25,02,02,16.90
2014,08,25,02,03,16.90
2014,08,25,02,04,16.90
2014,08,25,02,05,16.90
2014,08,25,02,06,16.90
2014,08,25,02,07,16.90
2014,08,25,02,08,16.90
2014,08,25,02,09,16.80
2014,08,25,02,10,16.80
2014,08,25,02,11,16.80
2014,08,25,02,12,16.80
2014,08,25,02,13,16.90
2014,08,25,02,14,16.90
2014,08,25,02,15,16.80
2014,08,25,02,16,16.80
2014,08,25,02,17,16.80
2014,08,25,02,18,16.80
2014,08,25,02,19,16.80
2014,08,25,02,20,16.80
2014,08,25,02,21,16.80
2014,08,25,02,22,16.80
2014,08,25,02,23,16.80
2014,08,25,02,24,16.70
2014,08,25,02,25,16.70
2014,08,25,02,26,16.70
2014,08,25,02,27,16.70
2014,08,25,02,28,16.70
2014,08,25,02,29,16.70
2014,08,25,02,30,16.70
2014,08,25,02,31,16.70
2014,08,25,02,32,16.70
2014,08,25,02,33,16.70
2014,08,25,02,34,16.70
2014,08,25,02,35,16.70
2014,08,25,02,36,16.70
2014,08,25,02,37,16.60
2014,08,25,02,38,16.60
2014,08,25,02,39,16.60
2014,08,25,02,40,16.60
2014,08,25,02,41,16.50
2014,08,25,02,42,16.50
2014,08,25,02,43,16.50
2014,08,25,02,44,16.50
2014,08,25,02,45,16.50
2014,08,25,02,46,16.50
2014,08,25,02,47,16.50
2014,08,25,02,48,16.50
2014,08,25,02,49,16.50
2014,08,25,02,50,16.50
2014,08,25,02,51,16.50
2014,08,25,02,52,16.50
2014,08,25,02,53,16.60
2014,08,25,02,54,16.60
2014,08,25,02,55,16.60
2014,08,25,02,56,16.60
2014,08,25,02,57,16.60
2014,08,25,02,58,16.60
2014,08,25,02,59,16.60
2014,08,25,03,00,16.60
2014,08,25,03,01,16.50
2014,08,25,03,02,16.50
2014,08,25,03,03,16.50
2014,08,25,03,04,16.50
2014,08,25,03,05,16.50
2014,08,25,03,06,16.50
2014,08,25,03,07,16.50
2014,08,25,03,08,16.40
2014,08,25,03,09,16.40
2014,08,25,03,10,16.40
2014,08,25,03,11,16.40
2014,08,25,03,12,16.40
2014,08,25,03,13,16.30
2014,08,25,03,14,16.30
2014,08,25,03,15,16.30
2014,08,25,03,16,16.20
2014,08,25,03,17,16.20
2014,08,25,03,18,16.10
2014,08,25,03,19,16.10
2014,08,25,03,20,16.00
2014,08,25,03,21,16.00
2014,08,25,03,22,15.90
2014,08,25,03,23,15.90
2014,08,25,03,24,15.80
2014,08,25,03,25,15.80
2014,08,25,03,26,15.80
2014,08,25,03,27,15.80
2014,08,25,03,28,15.70
2014,08,25,03,29,15.70
2014,08,25,03,30,15.70
2014,08,25,03,31,15.70
2014,08,25,03,32,15.70
2014,08,25,03,33,15.70
2014,08,25,03,34,15.70
2014,08,25,03,35,15.70
2014,08,25,03,36,15.70
2014,08,25,03,37,15.70
2014,08,25,03,38,15.70
2014,08,25,03,39,15.70
2014,08,25,03,40,15.70
2014,08,25,03,41,15.70
2014,08,25,03,42,15.70
2014,08,25,03,43,15.70
2014,08,25,03,44,15.70
2014,08,25,03,45,15.70
2014,08,25,03,46,15.70
2014,08,25,03,47,15.70
2014,08,25,03,48,15.70
2014,08,25,03,49,15.70
2014,08,25,03,50,15.70
2014,08,25,03,51,15.70
2014,08,25,03,52,15.70
2014,08,25,03,53,15.70
2014,08,25,03,54,15.80
2014,08,25,03,55,15.80
2014,08,25,03,56,15.80
2014,08,25,03,57,15.80
2014,08,25,03,58,15.80
2014,08,25,03,59,15.80
2014,08,25,04,00,15.70
2014,08,25,04,01,15.70
2014,08,25,04,02,15.70
2014,08,25,04,03,15.70
2014,08,25,04,04,15.70
2014,08,25,04,05,15.70
2014,08,25,04,06,15.70
2014,08,25,04,07,15.60
2014,08,25,04,08,15.60
2014,08,25,04,09,15.60
2014,08,25,04,10,15.60
2014,08,25,04,11,15.60
2014,08,25,04,12,15.60
2014,08,25,04,13,15.60
2014,08,25,04,14,15.60
2014,08,25,04,15,15.50
2014,08,25,04,16,15.50
2014,08,25,04,17,15.50
2014,08,25,04,18,15.50
2014,08,25,04,19,15.40
2014,08,25,04,20,15.40
2014,08,25,04,21,15.40
2014,08,25,04,22,15.40
2014,08,25,04,23,15.40
2014,08,25,04,24,15.40
2014,08,25,04,25,15.30
2014,08,25,04,26,15.30
2014,08,25,04,27,15.30
2014,08,25,04,28,15.30
2014,08,25,04,29,15.30
2014,08,25,04,30,15.30
2014,08,25,04,31,15.20
2014,08,25,04,32,15.20
2014,08,25,04,33,15.20
2014,08,25,04,34,15.10
2014,08,25,04,35,15.10
2014,08,25,04,36,15.10
2014,08,25,04,37,15.10
2014,08,25,04,38,15.10
2014,08,25,04,39,15.10
2014,08,25,04,40,15.10
2014,08,25,04,41,15.10
2014,08,25,04,42,15.10
2014,08,25,04,43,15.10
2014,08,25,04,44,15.10
2014,08,25,04,45,15.10
2014,08,25,04,46,15.10
2014,08,25,04,47,15.00
2014,08,25,04,48,15.00
2014,08,25,04,49,15.00
2014,08,25,04,50,15.00
2014,08,25,04,51,15.00
2014,08,25,04,52,15.00
2014,08,25,04,53,15.00
2014,08,25,04,54,15.00
2014,08,25,04,55,15.00
2014,08,25,04,56,15.00
2014,08,25,04,57,15.00
2014,08,25,04,58,15.00
2014,08,25,04,59,15.00
2014,08,25,05,00,15.10
2014,08,25,05,01,15.10
2014,08,25,05,02,15.10
2014,08,25,05,03,15.20
2014,08,25,05,04,15.20
2014,08,25,05,05,15.20
2014,08,25,05,06,15.30
2014,08,25,05,07,15.30
2014,08,25,05,08,15.30
2014,08,25,05,09,15.30
2014,08,25,05,10,15.40
2014,08,25,05,11,15.40
2014,08,25,05,12,15.40
2014,08,25,05,13,15.40
2014,08,25,05,14,15.40
2014,08,25,05,15,15.40
2014,08,25,05,16,15.50
2014,08,25,05,17,15.50
2014,08,25,05,18,15.50
2014,08,25,05,19,15.50
2014,08,25,05,20,15.50
2014,08,25,05,21,15.50
2014,08,25,05,22,15.50
2014,08,25,05,23,15.50
2014,08,25,05,24,15.50
2014,08,25,05,25,15.50
2014,08,25,05,26,15.40
2014,08,25,05,27,15.40
2014,08,25,05,28,15.40
2014,08,25,05,29,15.40
2014,08,25,05,30,15.40
2014,08,25,05,31,15.40
2014,08,25,05,32,15.40
2014,08,25,05,33,15.40
2014,08,25,05,34,15.30
2014,08,25,05,35,15.30
2014,08,25,05,36,15.30
2014,08,25,05,37,15.30
2014,08,25,05,38,15.30
2014,08,25,05,39,15.30
2014,08,25,05,40,15.30
2014,08,25,05,41,15.30
2014,08,25,05,42,15.30
2014,08,25,05,43,15.30
2014,08,25,05,44,15.30
2014,08,25,05,45,15.30
2014,08,25,05,46,15.30
2014,08,25,05,47,15.30
2014,08,25,05,48,15.30
2014,08,25,05,49,15.30
2014,08,25,05,50,15.30
2014,08,25,05,51,15.30
2014,08,25,05,52,15.30
2014,08,25,05,53,15.30
2014,08,25,05,54,15.30
2014,08,25,05,55,15.20
2014,08,25,05,56,15.20
2014,08,25,05,57,15.20
2014,08,25,05,58,15.20
2014,08,25,05,59,15.30
2014,08,25,06,00,15.30
2014,08,25,06,01,15.30
2014,08,25,06,02,15.30
2014,08,25,06,03,15.30
2014,08,25,06,04,15.30
2014,08,25,06,05,15.30
2014,08,25,06,06,15.30
2014,08,25,06,07,15.30
2014,08,25,06,08,15.30
2014,08,25,06,09,15.20
2014,08,25,06,10,15.20
2014,08,25,06,11,15.20
2014,08,25,06,12,15.20
2014,08,25,06,13,15.20
2014,08,25,06,14,15.20
2014,08,25,06,15,15.10
2014,08,25,06,16,15.10
2014,08,25,06,17,15.10
2014,08,25,06,18,15.10
2014,08,25,06,19,15.00
2014,08,25,06,20,15.00
2014,08,25,06,21,14.90
2014,08,25,06,22,14.90
2014,08,25,06,23,14.90
2014,08,25,06,24,14.80
2014,08,25,06,25,14.80
2014,08,25,06,26,14.80
2014,08,25,06,27,14.80
2014,08,25,06,28,14.80
2014,08,25,06,29,14.80
2014,08,25,06,30,14.80
2014,08,25,06,31,14.80
2014,08,25,06,32,14.90
2014,08,25,06,33,15.00
2014,08,25,06,34,15.10
2014,08,25,06,35,15.20
2014,08,25,06,36,15.20
2014,08,25,06,37,15.30
2014,08,25,06,38,15.40
2014,08,25,06,39,15.50
2014,08,25,06,40,15.50
2014,08,25,06,41,15.60
2014,08,25,06,42,15.60
2014,08,25,06,43,15.60
2014,08,25,06,44,15.70
2014,08,25,06,45,15.70
2014,08,25,06,46,15.70
2014,08,25,06,47,15.70
2014,08,25,06,48,15.70
2014,08,25,06,49,15.60
2014,08,25,06,50,15.60
2014,08,25,06,51,15.60
2014,08,25,06,52,15.50
2014,08,25,06,53,15.50
2014,08,25,06,54,15.40
2014,08,25,06,55,15.40
2014,08,25,06,56,15.40
2014,08,25,06,57,15.40
2014,08,25,06,58,15.30
2014,08,25,06,59,15.30
2014,08,25,07,00,15.30
2014,08,25,07,01,15.40
2014,08,25,07,02,15.40
2014,08,25,07,03,15.40
2014,08,25,07,04,15.40
2014,08,25,07,05,15.40
2014,08,25,07,06,15.40
2014,08,25,07,07,15.40
2014,08,25,07,08,15.40
2014,08,25,07,09,15.40
2014,08,25,07,10,15.40
2014,08,25,07,11,15.30
2014,08,25,07,12,15.30
2014,08,25,07,13,15.30
2014,08,25,07,14,15.30
2014,08,25,07,15,15.40
2014,08,25,07,16,15.40
2014,08,25,07,17,15.40
2014,08,25,07,18,15.40
2014,08,25,07,19,15.40
2014,08,25,07,20,15.50
2014,08,25,07,21,15.60
2014,08,25,07,22,15.60
2014,08,25,07,23,15.70
2014,08,25,07,24,15.70
2014,08,25,07,25,15.70
2014,08,25,07,26,15.80
2014,08,25,07,27,15.80
2014,08,25,07,28,15.90
2014,08,25,07,29,15.90
2014,08,25,07,30,15.90
2014,08,25,07,31,15.90
2014,08,25,07,32,16.00
2014,08,25,07,33,16.00
2014,08,25,07,34,16.10
2014,08,25,07,35,16.10
2014,08,25,07,36,16.10
2014,08,25,07,37,16.10
2014,08,25,07,38,16.20
2014,08,25,07,39,16.20
2014,08,25,07,40,16.20
2014,08,25,07,41,16.20
2014,08,25,07,42,16.20
2014,08,25,07,43,16.20
2014,08,25,07,44,16.20
2014,08,25,07,45,16.30
2014,08,25,07,46,16.30
2014,08,25,07,47,16.30
2014,08,25,07,48,16.40
2014,08,25,07,49,16.40
2014,08,25,07,50,16.40
2014,08,25,07,51,16.40
2014,08,25,07,52,16.40
2014,08,25,07,53,16.50
2014,08,25,07,54,16.50
2014,08,25,07,55,16.50
2014,08,25,07,56,16.50
2014,08,25,07,57,16.50
2014,08,25,07,58,16.50
2014,08,25,07,59,16.50
2014,08,25,08,00,16.60
2014,08,25,08,01,16.60
2014,08,25,08,02,16.60
2014,08,25,08,03,16.50
2014,08,25,08,04,16.50
2014,08,25,08,05,16.50
2014,08,25,08,06,16.50
2014,08,25,08,07,16.40
2014,08,25,08,08,16.40
2014,08,25,08,09,16.40
2014,08,25,08,10,16.40
2014,08,25,08,11,16.40
2014,08,25,08,12,16.40
2014,08,25,08,13,16.40
2014,08,25,08,14,16.30
2014,08,25,08,15,16.30
2014,08,25,08,16,16.30
2014,08,25,08,17,16.30
2014,08,25,08,18,16.30
2014,08,25,08,19,16.30
2014,08,25,08,20,16.40
2014,08,25,08,21,16.40
2014,08,25,08,22,16.40
2014,08,25,08,23,16.40
2014,08,25,08,24,16.40
2014,08,25,08,25,16.50
2014,08,25,08,26,16.50
2014,08,25,08,27,16.50
2014,08,25,08,28,16.50
2014,08,25,08,29,16.60
2014,08,25,08,30,16.60
2014,08,25,08,31,16.60
2014,08,25,08,32,16.60
2014,08,25,08,33,16.60
2014,08,25,08,34,16.70
2014,08,25,08,35,16.70
2014,08,25,08,36,16.70
2014,08,25,08,37,16.70
2014,08,25,08,38,16.70
2014,08,25,08,39,16.80
2014,08,25,08,40,16.80
2014,08,25,08,41,16.80
2014,08,25,08,42,16.80
2014,08,25,08,43,16.90
2014,08,25,08,44,16.90
2014,08,25,08,45,16.90
2014,08,25,08,46,16.90
2014,08,25,08,47,17.00
2014,08,25,08,48,17.00
2014,08,25,08,49,17.00
2014,08,25,08,50,17.10
2014,08,25,08,51,17.10
2014,08,25,08,52,17.10
2014,08,25,08,53,17.20
2014,08,25,08,54,17.20
2014,08,25,08,55,17.30
2014,08,25,08,56,17.30
2014,08,25,08,57,17.30
2014,08,25,08,58,17.40
2014,08,25,08,59,17.50
2014,08,25,09,00,17.50
2014,08,25,09,01,17.60
2014,08,25,09,02,17.60
2014,08,25,09,03,17.70
2014,08,25,09,04,17.70
2014,08,25,09,05,17.70
2014,08,25,09,06,17.80
2014,08,25,09,07,17.90
2014,08,25,09,08,18.00
2014,08,25,09,09,18.10
2014,08,25,09,10,18.20
2014,08,25,09,11,18.20
2014,08,25,09,12,18.20
2014,08,25,09,13,18.30
2014,08,25,09,14,18.30
2014,08,25,09,15,18.30
2014,08,25,09,16,18.40
2014,08,25,09,17,18.40
2014,08,25,09,18,18.40
2014,08,25,09,19,18.50
2014,08,25,09,20,18.50
2014,08,25,09,21,18.60
2014,08,25,09,22,18.60
2014,08,25,09,23,18.60
2014,08,25,09,24,18.70
2014,08,25,09,25,18.70
2014,08,25,09,26,18.70
2014,08,25,09,27,18.70
2014,08,25,09,28,18.70
2014,08,25,09,29,18.80
2014,08,25,09,30,18.80
2014,08,25,09,31,18.80
2014,08,25,09,32,18.80
2014,08,25,09,33,18.90
2014,08,25,09,34,18.90
2014,08,25,09,35,18.90
2014,08,25,09,36,18.90
2014,08,25,09,37,18.90
2014,08,25,09,38,18.90
2014,08,25,09,39,18.90
2014,08,25,09,40,18.90
2014,08,25,09,41,18.90
2014,08,25,09,42,19.00
2014,08,25,09,43,19.00
2014,08,25,09,44,19.10
2014,08,25,09,45,19.10
2014,08,25,09,46,19.10
2014,08,25,09,47,19.20
2014,08,25,09,48,19.20
2014,08,25,09,49,19.30
2014,08,25,09,50,19.30
2014,08,25,09,51,19.40
2014,08,25,09,52,19.40
2014,08,25,09,53,19.40
2014,08,25,09,54,19.50
2014,08,25,09,55,19.50
2014,08,25,09,56,19.50
2014,08,25,09,57,19.50
2014,08,25,09,58,19.50
2014,08,25,09,59,19.60
2014,08,25,10,00,19.60
2014,08,25,10,01,19.60
2014,08,25,10,02,19.60
2014,08,25,10,03,19.70
2014,08,25,10,04,19.70
2014,08,25,10,05,19.70
2014,08,25,10,06,19.70
2014,08,25,10,07,19.60
2014,08,25,10,08,19.60
2014,08,25,10,09,19.60
2014,08,25,10,10,19.50
2014,08,25,10,11,19.40
2014,08,25,10,12,19.20
2014,08,25,10,13,19.10
2014,08,25,10,14,19.10
2014,08,25,10,15,19.00
2014,08,25,10,16,18.90
2014,08,25,10,17,18.90
2014,08,25,10,18,18.80
2014,08,25,10,19,18.80
2014,08,25,10,20,18.80
2014,08,25,10,21,18.80
2014,08,25,10,22,18.70
2014,08,25,10,23,18.70
2014,08,25,10,24,18.70
2014,08,25,10,25,18.70
2014,08,25,10,26,18.70
2014,08,25,10,27,18.80
2014,08,25,10,28,18.80
2014,08,25,10,29,18.80
2014,08,25,10,30,18.90
2014,08,25,10,31,18.90
2014,08,25,10,32,19.00
2014,08,25,10,33,19.00
2014,08,25,10,34,19.10
2014,08,25,10,35,19.10
2014,08,25,10,36,19.10
2014,08,25,10,37,19.10
2014,08,25,10,38,19.10
2014,08,25,10,39,19.00
2014,08,25,10,40,19.00
2014,08,25,10,41,19.00
2014,08,25,10,42,19.00
2014,08,25,10,43,19.00
2014,08,25,10,44,19.00
2014,08,25,10,45,19.10
2014,08,25,10,46,19.10
2014,08,25,10,47,19.10
2014,08,25,10,48,19.10
2014,08,25,10,49,19.10
2014,08,25,10,50,19.10
2014,08,25,10,51,19.20
2014,08,25,10,52,19.30
2014,08,25,10,53,19.40
2014,08,25,10,54,19.50
2014,08,25,10,55,19.60
2014,08,25,10,56,19.60
2014,08,25,10,57,19.70
2014,08,25,10,58,19.70
2014,08,25,10,59,19.70
2014,08,25,11,00,19.80
2014,08,25,11,01,19.90
2014,08,25,11,02,20.00
2014,08,25,11,03,20.00
2014,08,25,11,04,20.10
2014,08,25,11,05,20.20
2014,08,25,11,06,20.20
2014,08,25,11,07,20.30
2014,08,25,11,08,20.30
2014,08,25,11,09,20.40
2014,08,25,11,10,20.40
2014,08,25,11,11,20.40
2014,08,25,11,12,20.50
2014,08,25,11,13,20.50
2014,08,25,11,14,20.50
2014,08,25,11,15,20.40
2014,08,25,11,16,20.40
2014,08,25,11,17,20.30
2014,08,25,11,18,20.20
2014,08,25,11,19,20.20
2014,08,25,11,20,20.10
2014,08,25,11,21,20.00
2014,08,25,11,22,20.00
2014,08,25,11,23,20.00
2014,08,25,11,24,20.00
2014,08,25,11,25,20.00
2014,08,25,11,26,20.00
2014,08,25,11,27,20.00
2014,08,25,11,28,20.00
2014,08,25,11,29,20.00
2014,08,25,11,30,20.10
2014,08,25,11,31,20.10
2014,08,25,11,32,20.10
2014,08,25,11,33,20.10
2014,08,25,11,34,20.10
2014,08,25,11,35,20.10
2014,08,25,11,36,20.10
2014,08,25,11,37,20.20
2014,08,25,11,38,20.20
2014,08,25,11,39,20.20
2014,08,25,11,40,20.20
2014,08,25,11,41,20.20
2014,08,25,11,42,20.20
2014,08,25,11,43,20.20
2014,08,25,11,44,20.30
2014,08,25,11,45,20.20
2014,08,25,11,46,20.20
2014,08,25,11,47,20.20
2014,08,25,11,48,20.20
2014,08,25,11,49,20.20
2014,08,25,11,50,20.20
2014,08,25,11,51,20.20
2014,08,25,11,52,20.20
2014,08,25,11,53,20.20
2014,08,25,11,54,20.20
2014,08,25,11,55,20.20
2014,08,25,11,56,20.30
2014,08,25,11,57,20.30
2014,08,25,11,58,20.40
2014,08,25,11,59,20.40
2014,08,25,12,00,20.50
2014,08,25,12,01,20.50
2014,08,25,12,02,20.50
2014,08,25,12,03,20.60
2014,08,25,12,04,20.60
2014,08,25,12,05,20.60
2014,08,25,12,06,20.60
2014,08,25,12,07,20.60
2014,08,25,12,08,20.60
2014,08,25,12,09,20.60
2014,08,25,12,10,20.60
2014,08,25,12,11,20.60
2014,08,25,12,12,20.60
2014,08,25,12,13,20.60
2014,08,25,12,14,20.60
2014,08,25,12,15,20.60
2014,08,25,12,16,20.70
2014,08,25,12,17,20.60
2014,08,25,12,18,20.50
2014,08,25,12,19,20.40
2014,08,25,12,20,20.30
2014,08,25,12,21,20.20
2014,08,25,12,22,20.10
2014,08,25,12,23,20.00
2014,08,25,12,24,20.00
2014,08,25,12,25,19.90
2014,08,25,12,26,19.80
2014,08,25,12,27,19.80
2014,08,25,12,28,19.70
2014,08,25,12,29,19.70
2014,08,25,12,30,19.70
2014,08,25,12,31,19.60
2014,08,25,12,32,19.70
2014,08,25,12,33,19.60
2014,08,25,12,34,19.60
2014,08,25,12,35,19.60
2014,08,25,12,36,19.60
2014,08,25,12,37,19.60
2014,08,25,12,38,19.60
2014,08,25,12,39,19.60
2014,08,25,12,40,19.50
2014,08,25,12,41,19.50
2014,08,25,12,42,19.40
2014,08,25,12,43,19.40
2014,08,25,12,44,19.50
2014,08,25,12,45,19.50
2014,08,25,12,46,19.40
2014,08,25,12,47,19.40
2014,08,25,12,48,19.40
2014,08,25,12,49,19.40
2014,08,25,12,50,19.50
2014,08,25,12,51,19.50
2014,08,25,12,52,19.50
2014,08,25,12,53,19.60
2014,08,25,12,54,19.60
2014,08,25,12,55,19.70
2014,08,25,12,56,19.80
2014,08,25,12,57,19.80
2014,08,25,12,58,19.90
2014,08,25,12,59,20.00
2014,08,25,13,00,20.00
2014,08,25,13,01,20.10
2014,08,25,13,02,20.10
2014,08,25,13,03,20.20
2014,08,25,13,04,20.20
2014,08,25,13,05,20.30
2014,08,25,13,06,20.30
2014,08,25,13,07,20.40
2014,08,25,13,08,20.40
2014,08,25,13,09,20.50
2014,08,25,13,10,20.50
2014,08,25,13,11,20.60
2014,08,25,13,12,20.60
2014,08,25,13,13,20.60
2014,08,25,13,14,20.60
2014,08,25,13,15,20.60
2014,08,25,13,16,20.60
2014,08,25,13,17,20.60
2014,08,25,13,18,20.60
2014,08,25,13,19,20.60
2014,08,25,13,20,20.60
2014,08,25,13,21,20.60
2014,08,25,13,22,20.70
2014,08,25,13,23,20.70
2014,08,25,13,24,20.70
2014,08,25,13,25,20.80
2014,08,25,13,26,20.80
2014,08,25,13,27,20.80
2014,08,25,13,28,20.90
2014,08,25,13,29,20.90
2014,08,25,13,30,21.00
2014,08,25,13,31,21.00
2014,08,25,13,32,21.00
2014,08,25,13,33,21.10
2014,08,25,13,34,21.10
2014,08,25,13,35,21.10
2014,08,25,13,36,21.10
2014,08,25,13,37,21.20
2014,08,25,13,38,21.20
2014,08,25,13,39,21.20
2014,08,25,13,40,21.20
2014,08,25,13,41,21.20
2014,08,25,13,42,21.20
2014,08,25,13,43,21.30
2014,08,25,13,44,21.30
2014,08,25,13,45,21.30
2014,08,25,13,46,21.40
2014,08,25,13,47,21.40
2014,08,25,13,48,21.50
2014,08,25,13,49,21.50
2014,08,25,13,50,21.50
2014,08,25,13,51,21.50
2014,08,25,13,52,21.50
2014,08,25,13,53,21.60
2014,08,25,13,54,21.60
2014,08,25,13,55,21.60
2014,08,25,13,56,21.70
2014,08,25,13,57,21.70
2014,08,25,13,58,21.80
2014,08,25,13,59,21.80
2014,08,25,14,00,21.90
2014,08,25,14,01,21.90
2014,08,25,14,02,22.00
2014,08,25,14,03,22.00
2014,08,25,14,04,22.00
2014,08,25,14,05,22.00
2014,08,25,14,06,22.00
2014,08,25,14,07,22.00
2014,08,25,14,08,22.00
2014,08,25,14,09,22.10
2014,08,25,14,10,22.10
2014,08,25,14,11,22.10
2014,08,25,14,12,22.10
2014,08,25,14,13,22.20
2014,08,25,14,14,22.20
2014,08,25,14,15,22.30
2014,08,25,14,16,22.40
2014,08,25,14,17,22.50
2014,08,25,14,18,22.50
2014,08,25,14,19,22.60
2014,08,25,14,20,22.60
2014,08,25,14,21,22.70
2014,08,25,14,22,22.70
2014,08,25,14,23,22.70
2014,08,25,14,24,22.80
2014,08,25,14,25,22.80
2014,08,25,14,26,22.80
2014,08,25,14,27,22.80
2014,08,25,14,28,22.80
2014,08,25,14,29,22.80
2014,08,25,14,30,22.70
2014,08,25,14,31,22.60
2014,08,25,14,32,22.60
2014,08,25,14,33,22.50
2014,08,25,14,34,22.50
2014,08,25,14,35,22.40
2014,08,25,14,36,22.40
2014,08,25,14,37,22.40
2014,08,25,14,38,22.40
2014,08,25,14,39,22.40
2014,08,25,14,40,22.40
2014,08,25,14,41,22.40
2014,08,25,14,42,22.50
2014,08,25,14,43,22.50
2014,08,25,14,44,22.60
2014,08,25,14,45,22.70
2014,08,25,14,46,22.70
2014,08,25,14,47,22.80
2014,08,25,14,48,22.80
2014,08,25,14,49,22.80
2014,08,25,14,50,22.80
2014,08,25,14,51,22.90
2014,08,25,14,52,22.90
2014,08,25,14,53,23.00
2014,08,25,14,54,23.10
2014,08,25,14,55,23.10
2014,08,25,14,56,23.10
2014,08,25,14,57,23.10
2014,08,25,14,58,23.10
2014,08,25,14,59,23.10
2014,08,25,15,00,23.10
2014,08,25,15,01,23.00
2014,08,25,15,02,23.00
2014,08,25,15,03,22.90
2014,08,25,15,04,22.80
2014,08,25,15,05,22.70
2014,08,25,15,06,22.70
2014,08,25,15,07,22.60
2014,08,25,15,08,22.60
2014,08,25,15,09,22.60
2014,08,25,15,10,22.50
2014,08,25,15,11,22.50
2014,08,25,15,12,22.50
2014,08,25,15,13,22.50
2014,08,25,15,14,22.50
2014,08,25,15,15,22.50
2014,08,25,15,16,22.60
2014,08,25,15,17,22.60
2014,08,25,15,18,22.60
2014,08,25,15,19,22.70
2014,08,25,15,20,22.70
2014,08,25,15,21,22.70
2014,08,25,15,22,22.80
2014,08,25,15,23,22.80
2014,08,25,15,24,22.80
2014,08,25,15,25,22.80
2014,08,25,15,26,22.80
2014,08,25,15,27,22.80
2014,08,25,15,28,22.80
2014,08,25,15,29,22.90
2014,08,25,15,30,23.00
2014,08,25,15,31,23.00
2014,08,25,15,32,23.10
2014,08,25,15,33,23.10
2014,08,25,15,34,23.20
2014,08,25,15,35,23.20
2014,08,25,15,36,23.30
2014,08,25,15,37,23.30
2014,08,25,15,38,23.30
2014,08,25,15,39,23.40
2014,08,25,15,40,23.40
2014,08,25,15,41,23.50
2014,08,25,15,42,23.60
2014,08,25,15,43,23.70
2014,08,25,15,44,23.90
2014,08,25,15,45,24.00
2014,08,25,15,46,24.10
2014,08,25,15,47,24.20
2014,08,25,15,48,24.30
2014,08,25,15,49,24.30
2014,08,25,15,50,24.40
2014,08,25,15,51,24.30
2014,08,25,15,52,24.30
2014,08,25,15,53,24.30
2014,08,25,15,54,24.40
2014,08,25,15,55,24.40
2014,08,25,15,56,24.50
2014,08,25,15,57,24.60
2014,08,25,15,58,24.70
2014,08,25,15,59,24.70
2014,08,25,16,00,24.70
2014,08,25,16,01,24.70
2014,08,25,16,02,24.70
2014,08,25,16,03,24.70
2014,08,25,16,04,24.70
2014,08,25,16,05,24.70
2014,08,25,16,06,24.80
2014,08,25,16,07,24.80
2014,08,25,16,08,24.80
2014,08,25,16,09,24.80
2014,08,25,16,10,24.90
2014,08,25,16,11,24.90
2014,08,25,16,12,25.00
2014,08,25,16,13,25.00
2014,08,25,16,14,25.00
2014,08,25,16,15,25.00
2014,08,25,16,16,25.00
2014,08,25,16,17,25.10
2014,08,25,16,18,25.20
2014,08,25,16,19,25.20
2014,08,25,16,20,25.20
2014,08,25,16,21,25.20
2014,08,25,16,22,25.30
2014,08,25,16,23,25.30
2014,08,25,16,24,25.30
2014,08,25,16,25,25.30
2014,08,25,16,26,25.30
2014,08,25,16,27,25.30
2014,08,25,16,28,25.20
2014,08,25,16,29,25.10
2014,08,25,16,30,25.10
2014,08,25,16,31,25.10
2014,08,25,16,32,25.10
2014,08,25,16,33,25.00
2014,08,25,16,34,25.00
2014,08,25,16,35,25.00
2014,08,25,16,36,25.00
2014,08,25,16,37,25.00
2014,08,25,16,38,25.00
2014,08,25,16,39,25.10
2014,08,25,16,40,25.10
2014,08,25,16,41,25.10
2014,08,25,16,42,25.10
2014,08,25,16,43,25.10
2014,08,25,16,44,25.20
2014,08,25,16,45,25.20
2014,08,25,16,46,25.30
2014,08,25,16,47,25.30
2014,08,25,16,48,25.30
2014,08,25,16,49,25.40
2014,08,25,16,50,25.50
2014,08,25,16,51,25.60
2014,08,25,16,52,25.60
2014,08,25,16,53,25.60
2014,08,25,16,54,25.60
2014,08,25,16,55,25.70
2014,08,25,16,56,25.80
2014,08,25,16,57,25.90
2014,08,25,16,58,26.00
2014,08,25,16,59,26.20
2014,08,25,17,00,26.20
2014,08,25,17,01,26.20
2014,08,25,17,02,26.10
2014,08,25,17,03,26.10
2014,08,25,17,04,26.00
2014,08,25,17,05,26.00
2014,08,25,17,06,25.90
2014,08,25,17,07,25.90
2014,08,25,17,08,25.80
2014,08,25,17,09,25.80
2014,08,25,17,10,25.70
2014,08,25,17,11,25.70
2014,08,25,17,12,25.70
2014,08,25,17,13,25.70
2014,08,25,17,14,25.70
2014,08,25,17,15,25.80
2014,08,25,17,16,25.80
2014,08,25,17,17,25.90
2014,08,25,17,18,25.90
2014,08,25,17,19,25.90